Location: Juzet
(42.9779°N, 0.7597°E)
Time: 17:58:49
(UTC+00:00)

Meteor 1-27 Rocket - Pass Details

Date: 14 July 2020
Orbit: 830 x 910 km, 81.3° (Epoch: 12 August)

Event Time Altitude Azimuth Distance (km) Brightness Sun altitude
Rises 00:49:46 0° 342° (NNW) 3,430 7.8 -24.5°
Reaches altitude 10° 00:52:19 10° 335° (NNW) 2,501 6.8 -24.4°
Maximum altitude 00:57:32 39° 268° (W) 1,281 4.5 -24.2°
Enters shadow 00:58:09 38° 253° (WSW) 1,308 4.4 -24.1°
